Flag for U.S.A. Weather past 2 weeks in Albuquerque, New Mexico, U.S.A.

Now
63 °F

Passing clouds.


Feels Like: 63 °F
Forecast: 47 / 57 °F
Wind: 9 mph from Northwest

Location: Albuquerque International Airport

Current Time: Apr 25, 2015 at 9:22:35 PM

Latest Report: Apr 25, 2015 at 8:52 PM


Visibility: 10 mi

Pressure: 29.62 "Hg

Humidity: 28%

Dew point: 29 °F

Location of AlbuquerqueLocation

Historic Weather in Albuquerque — Graph

°F

Albuquerque temperature yesterday

Maximum temperature yesterday: 59 °F (at 12:52 AM)
Minimum temperature yesterday: 45 °F (at 11:52 AM)
Average temperature yesterday: 53 °F

Past Weeks' High & Low Weather Summary

 TemperatureHumidityPressure
High74 °F (Apr 21, 1:52 PM)82% (Apr 24, 11:52 AM)30.16 "Hg (Apr 24, 11:52 AM)
Low32 °F (Apr 16, 4:52 AM)8% (Apr 12, 5:52 PM)29.61 "Hg (Apr 25, 7:52 PM)
Average57 °F30%29.84 "Hg
* Reported Apr 10 7:52 PM — Apr 25 7:52 PM, Albuquerque, Weather by CustomWeather, © 2015

Note: Actual official high and low records may vary slightly from our data, if they occured in-between our weather recording intervals... More about our weather records

Advertising

Albuquerque weather history for previous 24 hours

 ConditionsComfort  
Time TempWeatherWind HumidityBarometerVisibility
7:52 PM
Sat, Apr 25
65 °FBroken clouds.6 mph23%29.61 "Hg10 mi
6:52 PM67 °FPartly sunny.9 mph20%29.61 "Hg10 mi
5:52 PM69 °FPartly sunny.10 mph17%29.62 "Hg10 mi
4:52 PM69 °FPartly sunny.12 mph18%29.62 "Hg10 mi
3:52 PM68 °FBroken clouds.13 mph18%29.64 "Hg10 mi
2:52 PM67 °FPartly sunny.8 mph22%29.67 "Hg10 mi
1:52 PM64 °FPartly sunny.5 mph29%29.71 "Hg10 mi
12:52 PM60 °FPartly sunny.9 mph35%29.75 "Hg10 mi
11:52 AM57 °FPartly sunny.8 mph41%29.80 "Hg10 mi
10:52 AM57 °FPartly sunny.7 mph42%29.82 "Hg10 mi
9:52 AM55 °FScattered clouds.5 mph49%29.83 "Hg10 mi
8:52 AM51 °FPassing clouds.9 mph56%29.85 "Hg10 mi
7:52 AM48 °FPassing clouds.No wind63%29.86 "Hg10 mi
6:52 AM42 °FPassing clouds.8 mph76%29.87 "Hg10 mi
5:52 AM45 °FPassing clouds.7 mph65%29.86 "Hg10 mi
4:52 AM48 °FPassing clouds.7 mph56%29.85 "Hg10 mi
3:52 AM49 °FPassing clouds.6 mph55%29.85 "Hg10 mi
2:52 AM50 °FPassing clouds.9 mph50%29.84 "Hg10 mi
1:52 AM51 °FPassing clouds.9 mph50%29.86 "Hg10 mi
12:52 AM51 °FPassing clouds.6 mph52%29.87 "Hg10 mi
11:52 PM
Fri, Apr 24
53 °FPassing clouds.10 mph48%29.87 "Hg10 mi
10:52 PM53 °FPassing clouds.9 mph47%29.84 "Hg10 mi
9:52 PM54 °FPassing clouds.7 mph45%29.83 "Hg10 mi
Weather by CustomWeather, © 2015

See weather overviewHow to use our weather pages